Weather History for Akron Canton, OH

Change the Weather History Date:

Sunday, December 9, 2012

  Actual Average Record
Temperature  
Mean Temperature 46 °F 32 °F  
Max Temperature 56 °F 39 °F 62 °F (1952)
Min Temperature 36 °F 26 °F -7 °F (1917)
Degree Days  
Heating Degree Days 19 33  
Month to date heating degree days 175 281  
Since 1 July heating degree days 1469 1540  
Cooling Degree Days 0 0  
Month to date cooling degree days 0 0  
Year to date cooling degree days 1046 652  
Moisture  
Dew Point 41 °F    
Average Humidity 88    
Maximum Humidity 100    
Minimum Humidity 76    
Precipitation  
Precipitation 0.24 in 0.10 in 0.58 in (1956)
Month to date precipitation 1.59 0.89  
Year to date precipitation 35.31 37.67  
Snow  
Snow 0.00 in 0.40 in - ()
Month to date snowfall 0.0 2.5  
Since 1 July snowfall 0.5 5.9  
Snow Depth 0.00 in    
Sea Level Pressure  
Sea Level Pressure 29.95 in    
Wind  
Wind Speed 11 mph (SE)    
Max Wind Speed 15 mph    
Max Gust Speed 20 mph    
Visibility 5 miles    
Events Rain    
T = Trace of Precipitation, MM = Missing Value Source: NWS Daily Summary

Daily Weather History Graph

Daily Weather History Graph

Search for Another Location

Airport:

Trip Planner

Search our weather history database for the weather conditions in past years. The results will help you decide how hot, cold, wet, or windy it might be!

Date:

Astronomy

Dec. 09, 2012 Rise Set
Actual Time 7:39 AM EST 4:57 PM EST
Civil Twilight 7:08 AM EST 5:28 PM EST
Nautical Twilight 6:33 AM EST 6:02 PM EST
Astronomical Twilight 6:00 AM EST 6:36 PM EST
Moon 3:08 AM EST (12/9) 2:04 PM EST (12/9)
Length of Visible Light 10h 20m
Length of Day
9h 18m
Waning Crescent, 19% of the Moon is Illuminated
Dec 9
Waning Crescent
Dec 13
New
Dec 20
First Quarter
Dec 28
Full
Jan 4
Last Quarter

Hourly Weather History & Observations

Time (EST) Temp. Windchill Dew Point Humidity Pressure Visibility Wind Dir Wind Speed Gust Speed Precip Events Conditions
12:51 AM 37.9 °F 30.0 °F 32.0 °F 79% 30.13 in 10.0 mi NE 12.7 mph - N/A   Overcast
1:51 AM 37.0 °F 31.6 °F 32.0 °F 82% 30.14 in 10.0 mi ENE 6.9 mph - N/A   Overcast
2:51 AM 37.0 °F 29.3 °F 32.0 °F 82% 30.15 in 10.0 mi ENE 11.5 mph - N/A   Overcast
3:51 AM 37.0 °F 30.4 °F 32.0 °F 82% 30.16 in 8.0 mi ENE 9.2 mph - N/A   Overcast
4:51 AM 37.0 °F 30.4 °F 30.9 °F 79% 30.15 in 8.0 mi ENE 9.2 mph - N/A   Overcast
5:51 AM 37.4 °F 29.3 °F 32.0 °F 81% 30.11 in 8.0 mi ENE 12.7 mph - N/A   Overcast
6:51 AM 37.0 °F 30.4 °F 32.0 °F 82% 30.15 in 8.0 mi ENE 9.2 mph - N/A   Overcast
7:08 AM 37.4 °F 30.8 °F 32.0 °F 81% 30.12 in 8.0 mi East 9.2 mph - N/A   Overcast
7:51 AM 37.0 °F 29.8 °F 32.0 °F 82% 30.13 in 6.0 mi East 10.4 mph - N/A   Haze
8:51 AM 37.9 °F 30.5 °F 33.1 °F 83% 30.12 in 7.0 mi East 11.5 mph - N/A   Overcast
9:51 AM 39.0 °F 32.3 °F 33.1 °F 79% 30.10 in 7.0 mi East 10.4 mph - N/A   Overcast
10:51 AM 41.0 °F 34.3 °F 35.1 °F 79% 30.06 in 7.0 mi East 11.5 mph - N/A   Overcast
11:51 AM 42.1 °F 35.2 °F 35.1 °F 76% 30.04 in 7.0 mi ESE 12.7 mph - N/A   Overcast
12:51 PM 44.1 °F 37.4 °F 37.0 °F 76% 29.98 in 7.0 mi ESE 13.8 mph - N/A   Overcast
1:51 PM 44.1 °F 40.1 °F 39.0 °F 82% 29.96 in 6.0 mi SE 6.9 mph - 0.00 in Rain Light Rain
2:46 PM 44.6 °F 40.7 °F 39.2 °F 81% 29.90 in 5.0 mi ESE 6.9 mph - 0.02 in Rain Light Rain
2:51 PM 44.6 °F 40.2 °F 41.0 °F 87% 29.90 in 5.0 mi ESE 8.1 mph - N/A Rain Light Rain
3:08 PM 44.6 °F 39.2 °F 41.0 °F 87% 29.89 in 3.0 mi ESE 10.4 mph - 0.02 in Rain Light Rain
3:16 PM 44.6 °F 38.4 °F 41.0 °F 87% 29.89 in 2.0 mi SE 12.7 mph - 0.02 in Rain Light Rain
3:51 PM 44.1 °F 38.6 °F 42.1 °F 93% 29.90 in 2.0 mi SE 10.4 mph - 0.06 in   Overcast
4:15 PM 44.6 °F 39.7 °F 42.8 °F 93% 29.87 in 4.0 mi SE 9.2 mph - N/A   Overcast
4:51 PM 45.0 °F 39.3 °F 43.0 °F 93% 29.87 in 2.0 mi SSE 11.5 mph - 0.00 in Rain Rain
5:25 PM 46.4 °F 41.9 °F 44.6 °F 93% 29.84 in 3.0 mi SSE 9.2 mph - 0.03 in Rain Light Rain
5:51 PM 46.9 °F - 45.0 °F 93% 29.84 in 3.0 mi SSE 11.5 mph - 0.03 in   Overcast
6:20 PM 48.2 °F - 46.4 °F 93% 29.82 in 1.5 mi South 12.7 mph - N/A   Overcast
6:51 PM 48.9 °F - 48.0 °F 97% 29.83 in 0.8 mi South 12.7 mph - N/A   Overcast
7:51 PM 51.1 °F - 50.0 °F 96% 29.82 in 0.8 mi South 11.5 mph - N/A   Overcast
8:45 PM 53.6 °F - 51.8 °F 94% 29.78 in 1.0 mi SSW 13.8 mph - 0.00 in Rain Light Rain
8:51 PM 53.1 °F - 52.0 °F 96% 29.79 in 1.5 mi SSW 12.7 mph - 0.00 in Rain Light Rain
9:20 PM 53.6 °F - 53.6 °F 100% 29.76 in 1.5 mi SSW 13.8 mph - 0.00 in Rain Light Rain
9:51 PM 54.0 °F - 53.1 °F 97% 29.76 in 1.5 mi SSW 9.2 mph - 0.01 in Rain Light Rain
10:51 PM 55.9 °F - 54.0 °F 93% 29.73 in 2.0 mi SSW 11.5 mph - 0.03 in Rain Light Rain
11:20 PM 55.4 °F - 53.6 °F 94% 29.70 in 5.0 mi SSW 12.7 mph - 0.01 in Rain Light Rain
11:51 PM 55.9 °F - 55.0 °F 97% 29.70 in 3.0 mi SSW 12.7 mph - 0.05 in Rain Rain